Regional Weather Roundup
Issued by NWS

Home | Current Version | Previous Version | Text Only | Print | Product List | Glossary On
Versions: 1 2 3 4 5 6 7 8 9 10 11 12 13 14 15 16 17 18 19 20 21 22 23 24 25 26 27 28 29 30 31 32 33 34 35 36 37 38 39 40 41 42 43 44 45 46 47 48 49 50
311
ASUS44 KLIX 281511
RWRLA
LOUISIANA WEATHER ROUNDUP
NATIONAL WEATHER SERVICE NEW ORLEANS LA
1000 AM CDT SAT MAR 28 2015

NOTE: "FAIR" INDICATES FEW OR NO CLOUDS BELOW 12,000 FEET WITH NO
      SIGNIFICANT WEATHER AND/OR OBSTRUCTIONS TO VISIBILITY.
      SKY/WX - SKY CONDITION AND SIGNIFICANT WEATHER.
      TMP - AIR TEMPERATURE.    DP   - DEWPOINT TEMPERATURE.
      RH  - RELATIVE HUMIDITY.  PRES - PRESSURE.
      HX  - HEAT INDEX.         WCI  - WIND CHILL INDEX.

*  THESE STATIONS ARE NOT NWS OR FAA STATIONS AND ARE NOT UNDER
   NWS QUALITY CONTROL.

LAZ040-048-061>063-065-066-069-281600-
SOUTHEAST LOUISIANA

CITY           SKY/WX    TMP DP  RH WIND       PRES   REMARKS
N.O. AUDUBON   NOT AVBL
N.O. INTL ARPT MOSUNNY   57  33  40 SE8       30.25S
N.O. LAKEFRONT SUNNY     59  34  39 SE6       30.26R
SLIDELL        SUNNY     54  37  52 E7        30.25S
BATON ROUGE    SUNNY     56  37  49 E10       30.24F
BOOTHVILLE     SUNNY     59  44  57 NE8       30.27R
BELLE CHASSE   MOSUNNY   57  40  52 E8        30.26R
BOGALUSA*        N/A     53  36  52 E5        30.27R
GALLIANO*      SUNNY     62  46  56 MISG      30.26R
NEW ROADS*     FAIR      55  36  49 SE8       30.25S
GONZALES*      FAIR      57  42  57 E6        30.24F
HAMMOND*       SUNNY     55  36  47 E3        30.28R
HOUMA*         SUNNY     59  45  58 E7        30.24S
PORT FOURCHON* SUNNY     63  46  55 E9        30.28R

$$

LAZ041-044-053-054-281600-
SOUTHWEST LOUISIANA

CITY           SKY/WX    TMP DP  RH WIND       PRES   REMARKS
LAKE CHARLES   SUNNY     60  49  66 SE9       30.21R
LAFAYETTE      SUNNY     58  43  57 VRB6      30.24R
PATTERSON      SUNNY     59  43  55 E9        30.26R
SALT POINT       N/A     59  44  57 SE9       30.22R
NEW IBERIA     SUNNY     60  45  57 SE8       30.24R
CHENAULT AIRPK SUNNY     61  48  63 E8        30.21S

$$

LAZ027-028-281600-
CENTRAL LOUISIANA

CITY           SKY/WX    TMP DP  RH WIND       PRES   REMARKS
FORT POLK      SUNNY     57  43  59 SE12      30.19F
ALEXANDRIA INT SUNNY     55  39  54 SE13      30.21R
ALEXANDRIA     SUNNY     55  40  56 SE9       30.22R

$$

LAZ001-002-281600-
NORTHWEST LOUISIANA

CITY           SKY/WX    TMP DP  RH WIND       PRES   REMARKS
SHREVEPORT     PTSUNNY   56  42  59 S12       30.18R
BARKSDALE AFB  MOSUNNY   54  42  62 S9        30.20R
DTN SHREVEPORT MOSUNNY   54  42  64 SE7       30.20R

$$

LAZ014-016-281600-
NORTHEAST LOUISIANA

CITY           SKY/WX    TMP DP  RH WIND       PRES   REMARKS
MONROE         PTSUNNY   51  39  63 SE3       30.25R
TALLULAH       MOSUNNY   48  38  68 E10       30.26S

$$




USA.gov is the U.S. government's official web portal to all federal, state and local government web resources and services.